Year,Month,Day,Hour,Minute,Value (Times are PST for temperature in C)
2011,07,04,00,00,11.70
2011,07,04,00,01,11.70
2011,07,04,00,02,11.70
2011,07,04,00,03,11.70
2011,07,04,00,04,11.70
2011,07,04,00,05,11.60
2011,07,04,00,06,11.60
2011,07,04,00,07,11.60
2011,07,04,00,08,11.50
2011,07,04,00,09,11.50
2011,07,04,00,10,11.40
2011,07,04,00,11,11.40
2011,07,04,00,12,11.40
2011,07,04,00,13,11.40
2011,07,04,00,14,11.30
2011,07,04,00,15,11.30
2011,07,04,00,16,11.30
2011,07,04,00,17,11.30
2011,07,04,00,18,11.30
2011,07,04,00,19,11.30
2011,07,04,00,20,11.30
2011,07,04,00,21,11.30
2011,07,04,00,22,11.30
2011,07,04,00,23,11.30
2011,07,04,00,24,11.30
2011,07,04,00,25,11.30
2011,07,04,00,26,11.40
2011,07,04,00,27,11.40
2011,07,04,00,28,11.40
2011,07,04,00,29,11.40
2011,07,04,00,30,11.40
2011,07,04,00,31,11.30
2011,07,04,00,32,11.30
2011,07,04,00,33,11.30
2011,07,04,00,34,11.30
2011,07,04,00,35,11.30
2011,07,04,00,36,11.30
2011,07,04,00,37,11.30
2011,07,04,00,38,11.20
2011,07,04,00,39,11.20
2011,07,04,00,40,11.20
2011,07,04,00,41,11.20
2011,07,04,00,42,11.10
2011,07,04,00,43,11.10
2011,07,04,00,44,11.10
2011,07,04,00,45,11.10
2011,07,04,00,46,11.00
2011,07,04,00,47,11.00
2011,07,04,00,48,11.00
2011,07,04,00,49,11.00
2011,07,04,00,50,11.00
2011,07,04,00,51,11.00
2011,07,04,00,52,10.90
2011,07,04,00,53,10.90
2011,07,04,00,54,10.90
2011,07,04,00,55,10.90
2011,07,04,00,56,10.80
2011,07,04,00,57,10.80
2011,07,04,00,58,10.80
2011,07,04,00,59,10.70
2011,07,04,01,00,10.70
2011,07,04,01,01,10.70
2011,07,04,01,02,10.70
2011,07,04,01,03,10.60
2011,07,04,01,04,10.60
2011,07,04,01,05,10.60
2011,07,04,01,06,10.60
2011,07,04,01,07,10.50
2011,07,04,01,08,10.50
2011,07,04,01,09,10.50
2011,07,04,01,10,10.40
2011,07,04,01,11,10.40
2011,07,04,01,12,10.40
2011,07,04,01,13,10.40
2011,07,04,01,14,10.40
2011,07,04,01,15,10.40
2011,07,04,01,16,10.30
2011,07,04,01,17,10.30
2011,07,04,01,18,10.30
2011,07,04,01,19,10.30
2011,07,04,01,20,10.30
2011,07,04,01,21,10.30
2011,07,04,01,22,10.20
2011,07,04,01,23,10.20
2011,07,04,01,24,10.20
2011,07,04,01,25,10.20
2011,07,04,01,26,10.20
2011,07,04,01,27,10.20
2011,07,04,01,28,10.20
2011,07,04,01,29,10.20
2011,07,04,01,30,10.20
2011,07,04,01,31,10.20
2011,07,04,01,32,10.20
2011,07,04,01,33,10.10
2011,07,04,01,34,10.10
2011,07,04,01,35,10.10
2011,07,04,01,36,10.10
2011,07,04,01,37,10.10
2011,07,04,01,38,10.10
2011,07,04,01,39,10.00
2011,07,04,01,40,10.00
2011,07,04,01,41,10.00
2011,07,04,01,42,10.00
2011,07,04,01,43,9.90
2011,07,04,01,44,9.90
2011,07,04,01,45,9.90
2011,07,04,01,46,9.90
2011,07,04,01,47,9.90
2011,07,04,01,48,9.90
2011,07,04,01,49,9.90
2011,07,04,01,50,9.90
2011,07,04,01,51,9.90
2011,07,04,01,52,9.90
2011,07,04,01,53,9.80
2011,07,04,01,54,9.80
2011,07,04,01,55,9.80
2011,07,04,01,56,9.80
2011,07,04,01,57,9.80
2011,07,04,01,58,9.80
2011,07,04,01,59,9.80
2011,07,04,02,00,9.80
2011,07,04,02,01,9.70
2011,07,04,02,02,9.70
2011,07,04,02,03,9.70
2011,07,04,02,04,9.70
2011,07,04,02,05,9.70
2011,07,04,02,06,9.70
2011,07,04,02,07,9.60
2011,07,04,02,08,9.60
2011,07,04,02,09,9.60
2011,07,04,02,10,9.60
2011,07,04,02,11,9.50
2011,07,04,02,12,9.50
2011,07,04,02,13,9.50
2011,07,04,02,14,9.40
2011,07,04,02,15,9.40
2011,07,04,02,16,9.40
2011,07,04,02,17,9.40
2011,07,04,02,18,9.40
2011,07,04,02,19,9.30
2011,07,04,02,20,9.30
2011,07,04,02,21,9.30
2011,07,04,02,22,9.30
2011,07,04,02,23,9.30
2011,07,04,02,24,9.30
2011,07,04,02,25,9.30
2011,07,04,02,26,9.20
2011,07,04,02,27,9.20
2011,07,04,02,28,9.20
2011,07,04,02,29,9.20
2011,07,04,02,30,9.20
2011,07,04,02,31,9.20
2011,07,04,02,32,9.10
2011,07,04,02,33,9.10
2011,07,04,02,34,9.10
2011,07,04,02,35,9.10
2011,07,04,02,36,9.10
2011,07,04,02,37,9.10
2011,07,04,02,38,9.00
2011,07,04,02,39,9.00
2011,07,04,02,40,9.00
2011,07,04,02,41,8.90
2011,07,04,02,42,8.90
2011,07,04,02,43,8.90
2011,07,04,02,44,8.90
2011,07,04,02,45,8.90
2011,07,04,02,46,8.90
2011,07,04,02,47,8.90
2011,07,04,02,48,8.90
2011,07,04,02,49,8.90
2011,07,04,02,50,8.80
2011,07,04,02,51,8.80
2011,07,04,02,52,8.80
2011,07,04,02,53,8.80
2011,07,04,02,54,8.80
2011,07,04,02,55,8.80
2011,07,04,02,56,8.80
2011,07,04,02,57,8.70
2011,07,04,02,58,8.70
2011,07,04,02,59,8.70
2011,07,04,03,00,8.70
2011,07,04,03,01,8.70
2011,07,04,03,02,8.70
2011,07,04,03,03,8.70
2011,07,04,03,04,8.70
2011,07,04,03,05,8.70
2011,07,04,03,06,8.70
2011,07,04,03,07,8.70
2011,07,04,03,08,8.60
2011,07,04,03,09,8.60
2011,07,04,03,10,8.70
2011,07,04,03,11,8.60
2011,07,04,03,12,8.70
2011,07,04,03,13,8.70
2011,07,04,03,14,8.70
2011,07,04,03,15,8.70
2011,07,04,03,16,8.60
2011,07,04,03,17,8.70
2011,07,04,03,18,8.60
2011,07,04,03,19,8.60
2011,07,04,03,20,8.60
2011,07,04,03,21,8.60
2011,07,04,03,22,8.60
2011,07,04,03,23,8.60
2011,07,04,03,24,8.60
2011,07,04,03,25,8.60
2011,07,04,03,26,8.50
2011,07,04,03,27,8.50
2011,07,04,03,28,8.50
2011,07,04,03,29,8.50
2011,07,04,03,30,8.50
2011,07,04,03,31,8.40
2011,07,04,03,32,8.40
2011,07,04,03,33,8.40
2011,07,04,03,34,8.40
2011,07,04,03,35,8.30
2011,07,04,03,36,8.30
2011,07,04,03,37,8.30
2011,07,04,03,38,8.30
2011,07,04,03,39,8.30
2011,07,04,03,40,8.30
2011,07,04,03,41,8.30
2011,07,04,03,42,8.30
2011,07,04,03,43,8.30
2011,07,04,03,44,8.30
2011,07,04,03,45,8.30
2011,07,04,03,46,8.30
2011,07,04,03,47,8.20
2011,07,04,03,48,8.20
2011,07,04,03,49,8.30
2011,07,04,03,50,8.30
2011,07,04,03,51,8.30
2011,07,04,03,52,8.30
2011,07,04,03,53,8.30
2011,07,04,03,54,8.30
2011,07,04,03,55,8.30
2011,07,04,03,56,8.30
2011,07,04,03,57,8.30
2011,07,04,03,58,8.30
2011,07,04,03,59,8.30
2011,07,04,04,00,8.30
2011,07,04,04,01,8.30
2011,07,04,04,02,8.30
2011,07,04,04,03,8.30
2011,07,04,04,04,8.30
2011,07,04,04,05,8.30
2011,07,04,04,06,8.30
2011,07,04,04,07,8.30
2011,07,04,04,08,8.20
2011,07,04,04,09,8.20
2011,07,04,04,10,8.20
2011,07,04,04,11,8.20
2011,07,04,04,12,8.20
2011,07,04,04,13,8.20
2011,07,04,04,14,8.20
2011,07,04,04,15,8.20
2011,07,04,04,16,8.20
2011,07,04,04,17,8.10
2011,07,04,04,18,8.10
2011,07,04,04,19,8.10
2011,07,04,04,20,8.10
2011,07,04,04,21,8.10
2011,07,04,04,22,8.10
2011,07,04,04,23,8.00
2011,07,04,04,24,8.00
2011,07,04,04,25,8.00
2011,07,04,04,26,7.90
2011,07,04,04,27,7.90
2011,07,04,04,28,7.90
2011,07,04,04,29,7.90
2011,07,04,04,30,7.90
2011,07,04,04,31,7.90
2011,07,04,04,32,7.90
2011,07,04,04,33,7.80
2011,07,04,04,34,7.80
2011,07,04,04,35,7.80
2011,07,04,04,36,7.80
2011,07,04,04,37,7.80
2011,07,04,04,38,7.80
2011,07,04,04,39,7.80
2011,07,04,04,40,7.80
2011,07,04,04,41,7.70
2011,07,04,04,42,7.70
2011,07,04,04,43,7.70
2011,07,04,04,44,7.70
2011,07,04,04,45,7.70
2011,07,04,04,46,7.70
2011,07,04,04,47,7.70
2011,07,04,04,48,7.70
2011,07,04,04,49,7.70
2011,07,04,04,50,7.70
2011,07,04,04,51,7.70
2011,07,04,04,52,7.70
2011,07,04,04,53,7.70
2011,07,04,04,54,7.70
2011,07,04,04,55,7.60
2011,07,04,04,56,7.60
2011,07,04,04,57,7.60
2011,07,04,04,58,7.60
2011,07,04,04,59,7.60
2011,07,04,05,00,7.60
2011,07,04,05,01,7.60
2011,07,04,05,02,7.60
2011,07,04,05,03,7.60
2011,07,04,05,04,7.60
2011,07,04,05,05,7.60
2011,07,04,05,06,7.60
2011,07,04,05,07,7.60
2011,07,04,05,08,7.70
2011,07,04,05,09,7.70
2011,07,04,05,10,7.70
2011,07,04,05,11,7.70
2011,07,04,05,12,7.70
2011,07,04,05,13,7.60
2011,07,04,05,14,7.60
2011,07,04,05,15,7.60
2011,07,04,05,16,7.60
2011,07,04,05,17,7.60
2011,07,04,05,18,7.50
2011,07,04,05,19,7.50
2011,07,04,05,20,7.50
2011,07,04,05,21,7.50
2011,07,04,05,22,7.50
2011,07,04,05,23,7.50
2011,07,04,05,24,7.50
2011,07,04,05,25,7.50
2011,07,04,05,26,7.50
2011,07,04,05,27,7.50
2011,07,04,05,28,7.50
2011,07,04,05,29,7.60
2011,07,04,05,30,7.60
2011,07,04,05,31,7.60
2011,07,04,05,32,7.60
2011,07,04,05,33,7.60
2011,07,04,05,34,7.60
2011,07,04,05,35,7.50
2011,07,04,05,36,7.50
2011,07,04,05,37,7.50
2011,07,04,05,38,7.50
2011,07,04,05,39,7.50
2011,07,04,05,40,7.50
2011,07,04,05,41,7.50
2011,07,04,05,42,7.50
2011,07,04,05,43,7.50
2011,07,04,05,44,7.50
2011,07,04,05,45,7.50
2011,07,04,05,46,7.50
2011,07,04,05,47,7.50
2011,07,04,05,48,7.50
2011,07,04,05,49,7.50
2011,07,04,05,50,7.50
2011,07,04,05,51,7.50
2011,07,04,05,52,7.50
2011,07,04,05,53,7.50
2011,07,04,05,54,7.50
2011,07,04,05,55,7.50
2011,07,04,05,56,7.50
2011,07,04,05,57,7.50
2011,07,04,05,58,7.50
2011,07,04,05,59,7.50
2011,07,04,06,00,7.50
2011,07,04,06,01,7.50
2011,07,04,06,02,7.50
2011,07,04,06,03,7.60
2011,07,04,06,04,7.60
2011,07,04,06,05,7.60
2011,07,04,06,06,7.70
2011,07,04,06,07,7.70
2011,07,04,06,08,7.70
2011,07,04,06,09,7.80
2011,07,04,06,10,7.80
2011,07,04,06,11,7.80
2011,07,04,06,12,7.90
2011,07,04,06,13,7.90
2011,07,04,06,14,7.90
2011,07,04,06,15,7.90
2011,07,04,06,16,7.90
2011,07,04,06,17,8.00
2011,07,04,06,18,8.00
2011,07,04,06,19,8.10
2011,07,04,06,20,8.10
2011,07,04,06,21,8.10
2011,07,04,06,22,8.10
2011,07,04,06,23,8.20
2011,07,04,06,24,8.20
2011,07,04,06,25,8.20
2011,07,04,06,26,8.20
2011,07,04,06,27,8.30
2011,07,04,06,28,8.30
2011,07,04,06,29,8.30
2011,07,04,06,30,8.40
2011,07,04,06,31,8.40
2011,07,04,06,32,8.40
2011,07,04,06,33,8.50
2011,07,04,06,34,8.50
2011,07,04,06,35,8.60
2011,07,04,06,36,8.60
2011,07,04,06,37,8.70
2011,07,04,06,38,8.70
2011,07,04,06,39,8.70
2011,07,04,06,40,8.80
2011,07,04,06,41,8.80
2011,07,04,06,42,8.90
2011,07,04,06,43,9.00
2011,07,04,06,44,9.10
2011,07,04,06,45,9.20
2011,07,04,06,46,9.20
2011,07,04,06,47,9.30
2011,07,04,06,48,9.40
2011,07,04,06,49,9.50
2011,07,04,06,50,9.70
2011,07,04,06,51,9.80
2011,07,04,06,52,9.90
2011,07,04,06,53,10.00
2011,07,04,06,54,10.10
2011,07,04,06,55,10.20
2011,07,04,06,56,10.30
2011,07,04,06,57,10.40
2011,07,04,06,58,10.40
2011,07,04,06,59,10.50
2011,07,04,07,00,10.50
2011,07,04,07,01,10.60
2011,07,04,07,02,10.60
2011,07,04,07,03,10.60
2011,07,04,07,04,10.60
2011,07,04,07,05,10.60
2011,07,04,07,06,10.60
2011,07,04,07,07,10.60
2011,07,04,07,08,10.70
2011,07,04,07,09,10.70
2011,07,04,07,10,10.70
2011,07,04,07,11,10.70
2011,07,04,07,12,10.70
2011,07,04,07,13,10.70
2011,07,04,07,14,10.70
2011,07,04,07,15,10.80
2011,07,04,07,16,10.80
2011,07,04,07,17,10.80
2011,07,04,07,18,10.90
2011,07,04,07,19,10.90
2011,07,04,07,20,11.00
2011,07,04,07,21,11.00
2011,07,04,07,22,11.10
2011,07,04,07,23,11.10
2011,07,04,07,24,11.20
2011,07,04,07,25,11.20
2011,07,04,07,26,11.30
2011,07,04,07,27,11.30
2011,07,04,07,28,11.40
2011,07,04,07,29,11.50
2011,07,04,07,30,11.50
2011,07,04,07,31,11.60
2011,07,04,07,32,11.70
2011,07,04,07,33,11.80
2011,07,04,07,34,11.80
2011,07,04,07,35,11.90
2011,07,04,07,36,12.00
2011,07,04,07,37,12.10
2011,07,04,07,38,12.20
2011,07,04,07,39,12.30
2011,07,04,07,40,12.30
2011,07,04,07,41,12.40
2011,07,04,07,42,12.40
2011,07,04,07,43,12.40
2011,07,04,07,44,12.50
2011,07,04,07,45,12.50
2011,07,04,07,46,12.60
2011,07,04,07,47,12.60
2011,07,04,07,48,12.70
2011,07,04,07,49,12.70
2011,07,04,07,50,12.80
2011,07,04,07,51,12.80
2011,07,04,07,52,12.90
2011,07,04,07,53,13.00
2011,07,04,07,54,13.10
2011,07,04,07,55,13.20
2011,07,04,07,56,13.30
2011,07,04,07,57,13.40
2011,07,04,07,58,13.40
2011,07,04,07,59,13.50
2011,07,04,08,00,13.60
2011,07,04,08,01,13.60
2011,07,04,08,02,13.70
2011,07,04,08,03,13.70
2011,07,04,08,04,13.80
2011,07,04,08,05,13.90
2011,07,04,08,06,14.00
2011,07,04,08,07,14.10
2011,07,04,08,08,14.20
2011,07,04,08,09,14.30
2011,07,04,08,10,14.40
2011,07,04,08,11,14.50
2011,07,04,08,12,14.60
2011,07,04,08,13,14.70
2011,07,04,08,14,14.80
2011,07,04,08,15,14.80
2011,07,04,08,16,14.90
2011,07,04,08,17,15.00
2011,07,04,08,18,15.10
2011,07,04,08,19,15.10
2011,07,04,08,20,15.20
2011,07,04,08,21,15.30
2011,07,04,08,22,15.40
2011,07,04,08,23,15.50
2011,07,04,08,24,15.50
2011,07,04,08,25,15.50
2011,07,04,08,26,15.60
2011,07,04,08,27,15.60
2011,07,04,08,28,15.60
2011,07,04,08,29,15.60
2011,07,04,08,30,15.60
2011,07,04,08,31,15.70
2011,07,04,08,32,15.70
2011,07,04,08,33,15.80
2011,07,04,08,34,15.80
2011,07,04,08,35,15.90
2011,07,04,08,36,16.00
2011,07,04,08,37,16.10
2011,07,04,08,38,16.10
2011,07,04,08,39,16.20
2011,07,04,08,40,16.20
2011,07,04,08,41,16.20
2011,07,04,08,42,16.30
2011,07,04,08,43,16.30
2011,07,04,08,44,16.40
2011,07,04,08,45,16.50
2011,07,04,08,46,16.50
2011,07,04,08,47,16.60
2011,07,04,08,48,16.60
2011,07,04,08,49,16.70
2011,07,04,08,50,16.70
2011,07,04,08,51,16.80
2011,07,04,08,52,16.80
2011,07,04,08,53,16.90
2011,07,04,08,54,16.90
2011,07,04,08,55,17.00
2011,07,04,08,56,17.10
2011,07,04,08,57,17.10
2011,07,04,08,58,17.20
2011,07,04,08,59,17.20
2011,07,04,09,00,17.20
2011,07,04,09,01,17.30
2011,07,04,09,02,17.30
2011,07,04,09,03,17.30
2011,07,04,09,04,17.30
2011,07,04,09,05,17.40
2011,07,04,09,06,17.40
2011,07,04,09,07,17.50
2011,07,04,09,08,17.40
2011,07,04,09,09,17.40
2011,07,04,09,10,17.40
2011,07,04,09,11,17.40
2011,07,04,09,12,17.40
2011,07,04,09,13,17.30
2011,07,04,09,14,17.30
2011,07,04,09,15,17.30
2011,07,04,09,16,17.30
2011,07,04,09,17,17.30
2011,07,04,09,18,17.20
2011,07,04,09,19,17.20
2011,07,04,09,20,17.20
2011,07,04,09,21,17.20
2011,07,04,09,22,17.20
2011,07,04,09,23,17.20
2011,07,04,09,24,17.10
2011,07,04,09,25,17.10
2011,07,04,09,26,17.10
2011,07,04,09,27,17.10
2011,07,04,09,28,17.10
2011,07,04,09,29,17.10
2011,07,04,09,30,17.20
2011,07,04,09,31,17.30
2011,07,04,09,32,17.30
2011,07,04,09,33,17.40
2011,07,04,09,34,17.40
2011,07,04,09,35,17.40
2011,07,04,09,36,17.40
2011,07,04,09,37,17.40
2011,07,04,09,38,17.50
2011,07,04,09,39,17.60
2011,07,04,09,40,17.60
2011,07,04,09,41,17.60
2011,07,04,09,42,17.60
2011,07,04,09,43,17.70
2011,07,04,09,44,17.80
2011,07,04,09,45,17.80
2011,07,04,09,46,17.70
2011,07,04,09,47,17.70
2011,07,04,09,48,17.70
2011,07,04,09,49,17.60
2011,07,04,09,50,17.60
2011,07,04,09,51,17.60
2011,07,04,09,52,17.50
2011,07,04,09,53,17.50
2011,07,04,09,54,17.50
2011,07,04,09,55,17.50
2011,07,04,09,56,17.50
2011,07,04,09,57,17.50
2011,07,04,09,58,17.60
2011,07,04,09,59,17.60
2011,07,04,10,00,17.70
2011,07,04,10,01,17.70
2011,07,04,10,02,17.70
2011,07,04,10,03,17.70
2011,07,04,10,04,17.70
2011,07,04,10,05,17.80
2011,07,04,10,06,17.80
2011,07,04,10,07,17.90
2011,07,04,10,08,18.00
2011,07,04,10,09,18.10
2011,07,04,10,10,18.00
2011,07,04,10,11,18.00
2011,07,04,10,12,17.90
2011,07,04,10,13,17.90
2011,07,04,10,14,18.00
2011,07,04,10,15,18.10
2011,07,04,10,16,18.20
2011,07,04,10,17,18.20
2011,07,04,10,18,18.10
2011,07,04,10,19,18.10
2011,07,04,10,20,18.00
2011,07,04,10,21,17.90
2011,07,04,10,22,17.80
2011,07,04,10,23,17.70
2011,07,04,10,24,17.60
2011,07,04,10,25,17.60
2011,07,04,10,26,17.60
2011,07,04,10,27,17.60
2011,07,04,10,28,17.70
2011,07,04,10,29,17.80
2011,07,04,10,30,17.80
2011,07,04,10,31,17.80
2011,07,04,10,32,17.90
2011,07,04,10,33,17.90
2011,07,04,10,34,18.00
2011,07,04,10,35,18.00
2011,07,04,10,36,18.10
2011,07,04,10,37,18.10
2011,07,04,10,38,18.10
2011,07,04,10,39,18.20
2011,07,04,10,40,18.20
2011,07,04,10,41,18.30
2011,07,04,10,42,18.40
2011,07,04,10,43,18.40
2011,07,04,10,44,18.40
2011,07,04,10,45,18.40
2011,07,04,10,46,18.40
2011,07,04,10,47,18.40
2011,07,04,10,48,18.30
2011,07,04,10,49,18.30
2011,07,04,10,50,18.30
2011,07,04,10,51,18.20
2011,07,04,10,52,18.30
2011,07,04,10,53,18.30
2011,07,04,10,54,18.40
2011,07,04,10,55,18.40
2011,07,04,10,56,18.50
2011,07,04,10,57,18.60
2011,07,04,10,58,18.70
2011,07,04,10,59,18.70
2011,07,04,11,00,18.80
2011,07,04,11,01,18.80
2011,07,04,11,02,18.70
2011,07,04,11,03,18.70
2011,07,04,11,04,18.70
2011,07,04,11,05,18.70
2011,07,04,11,06,18.70
2011,07,04,11,07,18.80
2011,07,04,11,08,18.80
2011,07,04,11,09,18.80
2011,07,04,11,10,18.90
2011,07,04,11,11,18.90
2011,07,04,11,12,18.90
2011,07,04,11,13,18.90
2011,07,04,11,14,18.90
2011,07,04,11,15,18.80
2011,07,04,11,16,18.70
2011,07,04,11,17,18.70
2011,07,04,11,18,18.70
2011,07,04,11,19,18.70
2011,07,04,11,20,18.70
2011,07,04,11,21,18.70
2011,07,04,11,22,18.70
2011,07,04,11,23,18.70
2011,07,04,11,24,18.70
2011,07,04,11,25,18.70
2011,07,04,11,26,18.70
2011,07,04,11,27,18.70
2011,07,04,11,28,18.70
2011,07,04,11,29,18.70
2011,07,04,11,30,18.80
2011,07,04,11,31,18.80
2011,07,04,11,32,18.80
2011,07,04,11,33,18.80
2011,07,04,11,34,18.80
2011,07,04,11,35,18.80
2011,07,04,11,36,18.90
2011,07,04,11,37,19.00
2011,07,04,11,38,19.10
2011,07,04,11,39,19.10
2011,07,04,11,40,19.20
2011,07,04,11,41,19.30
2011,07,04,11,42,19.40
2011,07,04,11,43,19.40
2011,07,04,11,44,19.40
2011,07,04,11,45,19.40
2011,07,04,11,46,19.40
2011,07,04,11,47,19.40
2011,07,04,11,48,19.40
2011,07,04,11,49,19.30
2011,07,04,11,50,19.20
2011,07,04,11,51,19.10
2011,07,04,11,52,19.00
2011,07,04,11,53,18.80
2011,07,04,11,54,18.70
2011,07,04,11,55,18.60
2011,07,04,11,56,18.50
2011,07,04,11,57,18.40
2011,07,04,11,58,18.40
2011,07,04,11,59,18.40
2011,07,04,12,00,18.40
2011,07,04,12,01,18.30
2011,07,04,12,02,18.30
2011,07,04,12,03,18.40
2011,07,04,12,04,18.40
2011,07,04,12,05,18.50
2011,07,04,12,06,18.50
2011,07,04,12,07,18.50
2011,07,04,12,08,18.60
2011,07,04,12,09,18.60
2011,07,04,12,10,18.70
2011,07,04,12,11,18.70
2011,07,04,12,12,18.60
2011,07,04,12,13,18.60
2011,07,04,12,14,18.50
2011,07,04,12,15,18.50
2011,07,04,12,16,18.40
2011,07,04,12,17,18.40
2011,07,04,12,18,18.40
2011,07,04,12,19,18.60
2011,07,04,12,20,18.60
2011,07,04,12,21,18.70
2011,07,04,12,22,18.70
2011,07,04,12,23,18.80
2011,07,04,12,24,18.80
2011,07,04,12,25,18.90
2011,07,04,12,26,18.90
2011,07,04,12,27,18.80
2011,07,04,12,28,18.80
2011,07,04,12,29,18.80
2011,07,04,12,30,18.80
2011,07,04,12,31,18.80
2011,07,04,12,32,18.80
2011,07,04,12,33,18.80
2011,07,04,12,34,18.90
2011,07,04,12,35,18.90
2011,07,04,12,36,19.00
2011,07,04,12,37,19.00
2011,07,04,12,38,18.90
2011,07,04,12,39,18.90
2011,07,04,12,40,18.90
2011,07,04,12,41,19.00
2011,07,04,12,42,19.10
2011,07,04,12,43,19.20
2011,07,04,12,44,19.30
2011,07,04,12,45,19.40
2011,07,04,12,46,19.40
2011,07,04,12,47,19.30
2011,07,04,12,48,19.30
2011,07,04,12,49,19.30
2011,07,04,12,50,19.30
2011,07,04,12,51,19.20
2011,07,04,12,52,19.20
2011,07,04,12,53,19.20
2011,07,04,12,54,19.20
2011,07,04,12,55,19.20
2011,07,04,12,56,19.30
2011,07,04,12,57,19.30
2011,07,04,12,58,19.20
2011,07,04,12,59,19.10
2011,07,04,13,00,19.00
2011,07,04,13,01,18.90
2011,07,04,13,02,18.80
2011,07,04,13,03,18.70
2011,07,04,13,04,18.70
2011,07,04,13,05,18.80
2011,07,04,13,06,18.90
2011,07,04,13,07,18.90
2011,07,04,13,08,18.90
2011,07,04,13,09,18.80
2011,07,04,13,10,18.80
2011,07,04,13,11,18.90
2011,07,04,13,12,18.90
2011,07,04,13,13,18.90
2011,07,04,13,14,18.90
2011,07,04,13,15,18.80
2011,07,04,13,16,18.90
2011,07,04,13,17,18.90
2011,07,04,13,18,19.00
2011,07,04,13,19,19.20
2011,07,04,13,20,19.20
2011,07,04,13,21,19.20
2011,07,04,13,22,19.20
2011,07,04,13,23,19.20
2011,07,04,13,24,19.20
2011,07,04,13,25,19.10
2011,07,04,13,26,19.20
2011,07,04,13,27,19.30
2011,07,04,13,28,19.30
2011,07,04,13,29,19.30
2011,07,04,13,30,19.30
2011,07,04,13,31,19.30
2011,07,04,13,32,19.30
2011,07,04,13,33,19.40
2011,07,04,13,34,19.40
2011,07,04,13,35,19.30
2011,07,04,13,36,19.30
2011,07,04,13,37,19.20
2011,07,04,13,38,19.20
2011,07,04,13,39,19.20
2011,07,04,13,40,19.20
2011,07,04,13,41,19.10
2011,07,04,13,42,19.10
2011,07,04,13,43,19.10
2011,07,04,13,44,19.20
2011,07,04,13,45,19.40
2011,07,04,13,46,19.60
2011,07,04,13,47,19.70
2011,07,04,13,48,19.70
2011,07,04,13,49,19.70
2011,07,04,13,50,19.50
2011,07,04,13,51,19.40
2011,07,04,13,52,19.40
2011,07,04,13,53,19.50
2011,07,04,13,54,19.70
2011,07,04,13,55,19.80
2011,07,04,13,56,19.80
2011,07,04,13,57,19.70
2011,07,04,13,58,19.70
2011,07,04,13,59,19.70
2011,07,04,14,00,19.60
2011,07,04,14,01,19.60
2011,07,04,14,02,19.50
2011,07,04,14,03,19.40
2011,07,04,14,04,19.30
2011,07,04,14,05,19.20
2011,07,04,14,06,19.20
2011,07,04,14,07,19.20
2011,07,04,14,08,19.20
2011,07,04,14,09,19.30
2011,07,04,14,10,19.40
2011,07,04,14,11,19.40
2011,07,04,14,12,19.40
2011,07,04,14,13,19.40
2011,07,04,14,14,19.40
2011,07,04,14,15,19.40
2011,07,04,14,16,19.40
2011,07,04,14,17,19.40
2011,07,04,14,18,19.40
2011,07,04,14,19,19.40
2011,07,04,14,20,19.40
2011,07,04,14,21,19.50
2011,07,04,14,22,19.70
2011,07,04,14,23,19.80
2011,07,04,14,24,19.80
2011,07,04,14,25,19.90
2011,07,04,14,26,19.90
2011,07,04,14,27,20.00
2011,07,04,14,28,20.00
2011,07,04,14,29,20.10
2011,07,04,14,30,20.10
2011,07,04,14,31,20.10
2011,07,04,14,32,20.10
2011,07,04,14,33,20.00
2011,07,04,14,34,20.00
2011,07,04,14,35,19.90
2011,07,04,14,36,19.80
2011,07,04,14,37,19.80
2011,07,04,14,38,19.80
2011,07,04,14,39,19.80
2011,07,04,14,40,19.80
2011,07,04,14,41,19.90
2011,07,04,14,42,19.90
2011,07,04,14,43,19.80
2011,07,04,14,44,19.90
2011,07,04,14,45,20.10
2011,07,04,14,46,20.20
2011,07,04,14,47,20.30
2011,07,04,14,48,20.30
2011,07,04,14,49,20.30
2011,07,04,14,50,20.40
2011,07,04,14,51,20.50
2011,07,04,14,52,20.50
2011,07,04,14,53,20.50
2011,07,04,14,54,20.30
2011,07,04,14,55,20.20
2011,07,04,14,56,20.10
2011,07,04,14,57,20.20
2011,07,04,14,58,20.20
2011,07,04,14,59,20.20
2011,07,04,15,00,20.20
2011,07,04,15,01,20.20
2011,07,04,15,02,20.30
2011,07,04,15,03,20.40
2011,07,04,15,04,20.40
2011,07,04,15,05,20.50
2011,07,04,15,06,20.50
2011,07,04,15,07,20.40
2011,07,04,15,08,20.40
2011,07,04,15,09,20.30
2011,07,04,15,10,20.20
2011,07,04,15,11,20.30
2011,07,04,15,12,20.30
2011,07,04,15,13,20.40
2011,07,04,15,14,20.50
2011,07,04,15,15,20.60
2011,07,04,15,16,20.50
2011,07,04,15,17,20.40
2011,07,04,15,18,20.50
2011,07,04,15,19,20.50
2011,07,04,15,20,20.60
2011,07,04,15,21,20.60
2011,07,04,15,22,20.70
2011,07,04,15,23,20.80
2011,07,04,15,24,20.80
2011,07,04,15,25,20.60
2011,07,04,15,26,20.50
2011,07,04,15,27,20.50
2011,07,04,15,28,20.50
2011,07,04,15,29,20.40
2011,07,04,15,30,20.30
2011,07,04,15,31,20.30
2011,07,04,15,32,20.20
2011,07,04,15,33,20.20
2011,07,04,15,34,20.20
2011,07,04,15,35,20.20
2011,07,04,15,36,20.10
2011,07,04,15,37,20.00
2011,07,04,15,38,19.90
2011,07,04,15,39,20.00
2011,07,04,15,40,20.00
2011,07,04,15,41,20.00
2011,07,04,15,42,19.90
2011,07,04,15,43,19.90
2011,07,04,15,44,19.90
2011,07,04,15,45,20.00
2011,07,04,15,46,20.10
2011,07,04,15,47,20.20
2011,07,04,15,48,20.30
2011,07,04,15,49,20.20
2011,07,04,15,50,20.20
2011,07,04,15,51,20.20
2011,07,04,15,52,20.30
2011,07,04,15,53,20.40
2011,07,04,15,54,20.60
2011,07,04,15,55,20.70
2011,07,04,15,56,20.70
2011,07,04,15,57,20.70
2011,07,04,15,58,20.60
2011,07,04,15,59,20.40
2011,07,04,16,00,20.40
2011,07,04,16,01,20.30
2011,07,04,16,02,20.20
2011,07,04,16,03,20.20
2011,07,04,16,04,20.20
2011,07,04,16,05,20.20
2011,07,04,16,06,20.30
2011,07,04,16,07,20.30
2011,07,04,16,08,20.30
2011,07,04,16,09,20.40
2011,07,04,16,10,20.50
2011,07,04,16,11,20.60
2011,07,04,16,12,20.50
2011,07,04,16,13,20.60
2011,07,04,16,14,20.60
2011,07,04,16,15,20.60
2011,07,04,16,16,20.60
2011,07,04,16,17,20.70
2011,07,04,16,18,20.70
2011,07,04,16,19,20.70
2011,07,04,16,20,20.60
2011,07,04,16,21,20.60
2011,07,04,16,22,20.60
2011,07,04,16,23,20.50
2011,07,04,16,24,20.40
2011,07,04,16,25,20.50
2011,07,04,16,26,20.50
2011,07,04,16,27,20.60
2011,07,04,16,28,20.70
2011,07,04,16,29,20.80
2011,07,04,16,30,20.80
2011,07,04,16,31,20.80
2011,07,04,16,32,20.80
2011,07,04,16,33,20.90
2011,07,04,16,34,20.90
2011,07,04,16,35,20.80
2011,07,04,16,36,20.50
2011,07,04,16,37,20.30
2011,07,04,16,38,20.00
2011,07,04,16,39,19.90
2011,07,04,16,40,19.90
2011,07,04,16,41,19.90
2011,07,04,16,42,19.80
2011,07,04,16,43,19.80
2011,07,04,16,44,19.80
2011,07,04,16,45,20.00
2011,07,04,16,46,20.10
2011,07,04,16,47,20.10
2011,07,04,16,48,20.20
2011,07,04,16,49,20.10
2011,07,04,16,50,20.00
2011,07,04,16,51,19.90
2011,07,04,16,52,19.70
2011,07,04,16,53,19.70
2011,07,04,16,54,19.80
2011,07,04,16,55,19.90
2011,07,04,16,56,19.90
2011,07,04,16,57,19.90
2011,07,04,16,58,20.00
2011,07,04,16,59,20.10
2011,07,04,17,00,20.20
2011,07,04,17,01,20.20
2011,07,04,17,02,20.20
2011,07,04,17,03,20.20
2011,07,04,17,04,20.20
2011,07,04,17,05,20.20
2011,07,04,17,06,20.20
2011,07,04,17,07,20.10
2011,07,04,17,08,20.10
2011,07,04,17,09,20.00
2011,07,04,17,10,19.90
2011,07,04,17,11,19.90
2011,07,04,17,12,20.00
2011,07,04,17,13,20.10
2011,07,04,17,14,20.20
2011,07,04,17,15,20.20
2011,07,04,17,16,20.20
2011,07,04,17,17,20.20
2011,07,04,17,18,20.20
2011,07,04,17,19,20.20
2011,07,04,17,20,20.20
2011,07,04,17,21,20.20
2011,07,04,17,22,20.30
2011,07,04,17,23,20.30
2011,07,04,17,24,20.30
2011,07,04,17,25,20.30
2011,07,04,17,26,20.20
2011,07,04,17,27,20.20
2011,07,04,17,28,20.20
2011,07,04,17,29,20.20
2011,07,04,17,30,20.20
2011,07,04,17,31,20.30
2011,07,04,17,32,20.30